TimeEST,TemperatureF,Dew PointF,Humidity,Sea Level PressureIn,VisibilityMPH,Wind Direction,Wind SpeedMPH,Gust SpeedMPH,PrecipitationIn,Events,Conditions,WindDirDegrees,DateUTC
12:15 AM,26.8,25.2,94,30.32,10.0,Calm,Calm,-,N/A,,Clear,0,2014-01-01 05:15:00
12:35 AM,27.1,25.2,92,30.31,10.0,Calm,Calm,-,N/A,,Clear,0,2014-01-01 05:35:00
12:55 AM,26.4,24.8,94,30.31,10.0,Calm,Calm,-,N/A,,Clear,0,2014-01-01 05:55:00
1:15 AM,27.5,25.7,93,30.31,10.0,Calm,Calm,-,N/A,,Clear,0,2014-01-01 06:15:00
1:35 AM,26.6,24.8,93,30.31,10.0,Calm,Calm,-,N/A,,Clear,0,2014-01-01 06:35:00
1:55 AM,26.8,25.3,94,30.31,10.0,Calm,Calm,-,N/A,,Clear,0,2014-01-01 06:55:00
2:15 AM,26.8,25.2,94,30.30,10.0,Calm,Calm,-,N/A,,Clear,0,2014-01-01 07:15:00
2:35 AM,25.7,24.3,94,30.30,10.0,East,5.8,-,N/A,,Clear,90,2014-01-01 07:35:00
2:55 AM,27.1,24.8,91,30.30,10.0,East,4.6,-,N/A,,Clear,80,2014-01-01 07:55:00
3:15 AM,29.3,25.0,84,30.30,10.0,East,6.9,-,N/A,,Clear,90,2014-01-01 08:15:00
3:35 AM,29.3,24.8,83,30.30,10.0,East,6.9,-,N/A,,Clear,90,2014-01-01 08:35:00
3:55 AM,29.1,24.6,83,30.30,10.0,East,3.5,-,N/A,,Clear,100,2014-01-01 08:55:00
4:15 AM,27.3,24.3,88,30.30,10.0,East,3.5,-,N/A,,Clear,100,2014-01-01 09:15:00
4:35 AM,25.9,23.4,90,30.29,10.0,ESE,6.9,-,N/A,,Clear,110,2014-01-01 09:35:00
4:55 AM,27.7,24.8,89,30.29,10.0,East,8.1,-,N/A,,Clear,90,2014-01-01 09:55:00
5:15 AM,27.5,24.8,90,30.29,10.0,East,5.8,-,N/A,,Clear,90,2014-01-01 10:15:00
5:35 AM,28.4,25.0,87,30.28,10.0,ENE,5.8,-,N/A,,Clear,70,2014-01-01 10:35:00
5:55 AM,27.7,24.4,88,30.28,10.0,East,4.6,-,N/A,,Clear,90,2014-01-01 10:55:00
6:15 AM,27.7,24.4,88,30.28,10.0,East,4.6,-,N/A,,Clear,80,2014-01-01 11:15:00
6:35 AM,27.1,23.9,88,30.28,10.0,East,4.6,-,N/A,,Clear,90,2014-01-01 11:35:00
6:55 AM,27.5,24.1,87,30.27,10.0,East,4.6,-,N/A,,Clear,90,2014-01-01 11:55:00
7:15 AM,28.4,24.1,84,30.27,10.0,East,5.8,-,N/A,,Clear,80,2014-01-01 12:15:00
7:35 AM,29.5,24.3,81,30.28,10.0,East,4.6,-,N/A,,Clear,80,2014-01-01 12:35:00
7:55 AM,29.3,24.1,81,30.28,10.0,East,5.8,-,N/A,,Clear,100,2014-01-01 12:55:00
8:15 AM,29.1,24.3,82,30.28,10.0,East,5.8,-,N/A,,Clear,90,2014-01-01 13:15:00
8:35 AM,30.0,24.4,80,30.29,10.0,East,8.1,-,N/A,,Clear,100,2014-01-01 13:35:00
8:55 AM,29.7,24.8,82,30.29,10.0,East,5.8,-,N/A,,Clear,90,2014-01-01 13:55:00
9:15 AM,29.3,25.3,85,30.29,10.0,East,5.8,-,N/A,,Clear,90,2014-01-01 14:15:00
9:35 AM,31.5,27.5,85,30.29,10.0,East,5.8,-,N/A,,Clear,100,2014-01-01 14:35:00
9:55 AM,33.4,28.4,82,30.28,10.0,ESE,6.9,-,N/A,,Clear,110,2014-01-01 14:55:00
10:15 AM,34.3,28.8,80,30.28,10.0,ESE,6.9,-,N/A,,Clear,110,2014-01-01 15:15:00
10:35 AM,35.2,28.9,78,30.27,10.0,ESE,6.9,-,N/A,,Clear,110,2014-01-01 15:35:00
10:55 AM,37.0,28.8,72,30.27,10.0,East,5.8,-,N/A,,Clear,90,2014-01-01 15:55:00
11:15 AM,39.0,29.1,68,30.27,10.0,East,6.9,-,N/A,,Clear,90,2014-01-01 16:15:00
11:35 AM,41.9,28.0,58,30.26,10.0,East,5.8,-,N/A,,Clear,90,2014-01-01 16:35:00
11:55 AM,44.6,29.7,56,30.24,10.0,ESE,5.8,-,N/A,,Clear,110,2014-01-01 16:55:00
12:15 PM,45.7,28.4,51,30.23,10.0,ESE,4.6,-,N/A,,Clear,120,2014-01-01 17:15:00
12:35 PM,47.7,26.4,44,30.21,10.0,ESE,3.5,-,N/A,,Clear,120,2014-01-01 17:35:00
12:55 PM,48.4,24.1,39,30.19,10.0,Calm,Calm,-,N/A,,Clear,0,2014-01-01 17:55:00
1:15 PM,50.2,24.1,36,30.18,10.0,WSW,3.5,-,N/A,,Clear,250,2014-01-01 18:15:00
1:35 PM,50.9,23.7,35,30.17,10.0,SSW,3.5,-,N/A,,Clear,210,2014-01-01 18:35:00
1:55 PM,51.1,25.0,36,30.16,10.0,SW,5.8,-,N/A,,Clear,220,2014-01-01 18:55:00
2:15 PM,51.4,25.3,36,30.16,10.0,SW,3.5,-,N/A,,Clear,230,2014-01-01 19:15:00
2:35 PM,51.6,22.6,32,30.15,10.0,West,3.5,-,N/A,,Clear,270,2014-01-01 19:35:00
2:55 PM,51.3,22.1,32,30.15,10.0,West,8.1,-,N/A,,Clear,270,2014-01-01 19:55:00
3:15 PM,50.9,21.4,31,30.15,10.0,West,8.1,-,N/A,,Clear,270,2014-01-01 20:15:00
3:35 PM,50.9,20.8,31,30.15,10.0,WSW,6.9,-,N/A,,Clear,250,2014-01-01 20:35:00
3:55 PM,50.4,22.8,34,30.15,10.0,West,4.6,-,N/A,,Clear,270,2014-01-01 20:55:00
4:15 PM,50.0,23.0,35,30.14,10.0,West,4.6,-,N/A,,Clear,270,2014-01-01 21:15:00
4:35 PM,48.9,22.5,35,30.14,10.0,West,4.6,-,N/A,,Clear,270,2014-01-01 21:35:00
4:55 PM,46.6,23.7,41,30.13,10.0,SW,4.6,-,N/A,,Clear,220,2014-01-01 21:55:00
5:15 PM,45.5,23.5,42,30.13,10.0,West,3.5,-,N/A,,Clear,260,2014-01-01 22:15:00
5:35 PM,43.3,24.1,47,30.13,10.0,WSW,5.8,-,N/A,,Clear,240,2014-01-01 22:35:00
5:55 PM,41.4,24.8,52,30.13,10.0,West,4.6,-,N/A,,Clear,270,2014-01-01 22:55:00
6:15 PM,41.4,24.8,52,30.13,10.0,West,4.6,-,N/A,,Clear,270,2014-01-01 23:15:00
6:35 PM,40.5,25.2,54,30.13,10.0,Calm,Calm,-,N/A,,Clear,0,2014-01-01 23:35:00
6:55 PM,39.2,25.3,58,30.13,10.0,SW,3.5,-,N/A,,Clear,220,2014-01-01 23:55:00
7:15 PM,35.6,25.7,67,30.13,10.0,Calm,Calm,-,N/A,,Clear,0,2014-01-02 00:15:00
7:35 PM,35.1,25.7,69,30.13,10.0,Calm,Calm,-,N/A,,Clear,0,2014-01-02 00:35:00
7:55 PM,34.9,25.7,69,30.12,10.0,Calm,Calm,-,N/A,,Clear,0,2014-01-02 00:55:00
8:15 PM,34.5,25.9,71,30.12,10.0,Calm,Calm,-,N/A,,Clear,0,2014-01-02 01:15:00
8:35 PM,34.0,25.7,72,30.12,10.0,Calm,Calm,-,N/A,,Clear,0,2014-01-02 01:35:00
8:55 PM,33.6,26.1,74,30.11,10.0,Calm,Calm,-,N/A,,Clear,0,2014-01-02 01:55:00
9:15 PM,32.4,26.2,78,30.11,10.0,Calm,Calm,-,N/A,,Clear,0,2014-01-02 02:15:00
9:35 PM,32.7,25.9,76,30.10,10.0,Calm,Calm,-,N/A,,Clear,0,2014-01-02 02:35:00
9:55 PM,31.8,25.7,78,30.10,10.0,Calm,Calm,-,N/A,,Clear,0,2014-01-02 02:55:00
10:15 PM,32.0,25.9,78,30.10,10.0,Calm,Calm,-,N/A,,Clear,0,2014-01-02 03:15:00
10:35 PM,31.3,25.9,80,30.09,10.0,Calm,Calm,-,N/A,,Clear,0,2014-01-02 03:35:00
10:55 PM,32.0,26.1,79,30.09,10.0,Calm,Calm,-,N/A,,Clear,0,2014-01-02 03:55:00
11:15 PM,31.3,26.1,81,30.08,10.0,Calm,Calm,-,N/A,,Clear,0,2014-01-02 04:15:00
11:35 PM,31.6,26.1,80,30.07,10.0,Calm,Calm,-,N/A,,Clear,0,2014-01-02 04:35:00
11:55 PM,32.0,26.2,79,30.06,10.0,East,3.5,-,N/A,,Clear,90,2014-01-02 04:55:00